Regional Weather Roundup
Issued by NWS

Home | Current Version | Previous Version | Text Only | Print | Product List | Glossary On
Versions: 1 2 3 4 5 6 7 8 9 10 11 12 13 14 15 16 17 18 19 20 21 22 23 24 25 26 27 28 29 30 31 32 33 34 35 36 37 38 39 40 41 42 43 44 45 46 47 48 49 50
000
ASUS42 KKEY 310610
RWRKEY

FLORIDA REGIONAL WEATHER ROUNDUP FOR THE FLORIDA KEYS
NATIONAL WEATHER SERVICE KEY WEST FLORIDA
200 AM EDT SUN AUG 31 2014

...SOUTH FLORIDA AND THE KEYS...

CITY           SKY/WX    TMP DP  RH WIND       PRES   REMARKS
FORT MYERS     FAIR      79  75  87 CALM      30.11S
SW REGIONAL AP FAIR      79  73  82 N3        30.12R
NAPLES         FAIR      80  75  84 NE5       30.10F
MIAMI          MOCLDY    85  74  69 E5        30.10F HX  92
WEST KENDALL   FAIR      80  74  81 CALM      30.10S
HOMESTEAD      FAIR      82  75  78 E3        30.09F
MARATHON       MOCLDY    81  78  91 E6        30.07S
BOCA CHICA NAS FAIR      81  71  71 E8        30.07S
KEY WEST INTL  FAIR      84  70  62 E13G23    30.07F

...INTERNATIONAL WEATHER...

CITY           SKY/WX    TMP DP  RH WIND       PRES   REMARKS
NASSAU BAHAMAS PTCLDY    82  77  83 E9        30.10S HX  91
CANCUN MEXICO  CLOUDY    79  77  94 NE3       29.96R
COZUMEL MEXICO CLOUDY    73  73 100 CALM      29.94F

ADJACENT COASTAL WATERS...

STATION/POSITION TIME  SKY/WX   TEMP    WIND        PRES    WAVE
                                AIR SEA DIR/SP/G            HT/PER
                 (UTC)          (F)     (DEG/KT/KT) (MB)    (FT/S)
PULASKI SHOAL LI 0600            85     120/ 16/ 18 1017.8R
SAND KEY         0600            83     110/ 14/ 16 1018.0S
SOMBRERO KEY     0600            85     110/ 16/ 17 1018.8F
LONG KEY         0500            86 87  120/ 14/ 16 1019.3R
MOLASSES REEF    0600            85 87  100/ 12/ 13 1018.7R
FOWEY ROCKS      0600            86 87  110/ 11/ 12 1019.3S
Buoy 42080       NOT AVBL

$$


USA.gov is the U.S. government's official web portal to all federal, state and local government web resources and services.